Dewpoint
64 64 66 67 67 66 66 66 67 66 67 67 68 68 67 65 65 65 66 64 67 68 69 69 69 69 68 67 66 66 66 65 65
64 64 66 66 66 65 66 66 66 66 66 66 67 66 65 64 65 65 66 65 66 66 67 68 68 68 68 67 66 66 66 66 65
63 64 65 65 65 65 66 67 67 67 67 67 66 65 64 63 63 64 65 66 66 67 68 67 67 67 68 67 66 66 65 64 64
65 66 65 65 64 64 65 66 67 67 66 66 65 64 63 62 63 62 64 65 66 67 67 68 67 67 67 67 66 66 65 64 64
64 65 65 65 64 64 65 65 65 65 65 64 63 63 62 61 61 62 63 65 65 64 66 67 66 67 67 67 67 66 67 67 66
61 63 64 64 64 63 63 63 63 63 62 62 62 61 60 60 61 62 65 65 65 65 65 66 66 66 67 67 67 67 67 66 65
61 61 61 62 62 61 61 60 61 61 61 60 60 59 59 60 61 64 65 65 65 65 65 65 66 66 67 66 67 67 66 66 65
55 57 58 60 60 59 59 58 58 58 58 58 58 58 58 58 59 60 64 64 64 65 65 65 65 65 65 65 66 66 65 65 64
55 57 59 59 60 58 56 55 55 55 55 56 56 56 56 56 56 56 61 63 63 63 64 64 64 63 63 65 65 65 64 64 63
51 55 56 58 60 57 56 54 53 53 53 53 53 54 55 55 55 55 57 59 61 61 61 62 64 63 62 64 64 64 64 64 63
47 48 51 52 56 57 56 54 53 51 51 50 50 50 51 53 55 54 54 55 57 59 59 60 60 63 64 63 63 63 63 63 63
43 44 45 47 47 52 54 53 52 51 50 49 48 48 49 49 50 53 54 53 53 55 57 58 58 59 59 61 63 63 62 62 63
40 41 42 44 44 45 49 52 50 49 48 47 47 47 47 48 48 49 50 52 53 53 53 54 55 57 57 58 58 58 59 63 62
38 38 39 41 42 42 44 49 50 49 47 44 45 47 47 48 47 47 49 50 50 50 50 51 52 53 54 54 55 55 56 57 59
35 36 37 39 40 40 41 45 50 47 45 44 44 45 47 46 45 46 47 49 49 47 48 49 49 50 52 52 52 52 53 54 55
28 31 32 36 37 38 39 40 42 43 44 44 43 45 46 46 45 45 47 46 46 46 47 46 47 47 50 49 50 51 51 51 51
21 24 27 30 33 35 37 38 40 41 43 42 44 41 43 44 45 46 45 45 45 45 45 46 46 46 47 47 49 49 50 51 51
16 17 21 25 29 31 32 35 36 39 40 41 41 39 41 40 45 44 45 43 42 44 45 45 46 45 46 46 47 48 49 50 51
11 11 15 19 24 28 29 31 33 36 36 38 37 39 40 41 39 41 41 40 39 41 44 44 44 45 45 45 45 46 48 50 50
5 6 7 12 20 24 27 29 30 32 32 33 34 36 38 36 36 37 38 37 38 40 40 41 44 43 43 43 41 42 45 48 49
Wind_Speed
14 15 19 19 19 17 14 14 13 12 15 14 14 12 9 5 11 11 10 12 12 13 13 15 15 17 17 17 17 16 16 16 16
13 15 18 17 15 12 12 12 12 14 15 16 15 12 11 12 10 11 10 12 12 13 13 13 15 15 15 15 15 15 14 15 15
15 15 15 16 13 13 14 14 15 15 16 17 16 14 10 11 12 11 9 8 11 12 12 13 13 13 14 14 13 13 14 13 13
17 14 16 15 14 15 16 15 16 17 18 16 16 17 14 13 11 10 8 7 8 11 9 10 11 12 12 12 12 12 12 12 12
15 13 16 15 14 15 15 15 16 17 18 16 14 11 13 13 11 12 11 9 6 9 10 9 11 11 10 10 10 9 10 11 12
15 15 15 16 16 15 16 16 13 12 17 17 13 10 12 13 13 13 14 13 11 7 8 12 11 6 7 8 9 10 10 9 9
11 13 14 15 13 16 15 15 14 13 10 10 14 11 12 13 14 15 17 15 15 13 11 12 9 3 3 4 8 12 10 8 8
9 8 9 9 11 10 11 13 13 14 11 12 12 11 10 11 12 18 20 19 15 14 13 11 10 10 9 9 10 10 10 7 7
9 9 9 9 9 10 10 11 12 12 13 12 12 13 11 9 9 14 19 21 21 18 15 12 9 9 7 6 8 7 9 5 5
10 10 10 11 7 7 8 8 9 10 10 10 12 12 11 10 8 8 16 18 20 20 20 20 16 6 4 6 8 7 5 4 3
10 9 11 12 11 9 9 8 8 7 7 8 10 11 10 9 8 7 7 14 17 18 18 18 20 21 13 7 5 2 2 2 1
11 10 11 11 10 10 7 7 7 7 7 8 10 10 10 8 8 7 6 7 11 14 15 17 18 19 18 19 20 5 2 1 3
13 12 12 11 11 10 7 8 6 5 7 9 8 8 6 7 7 7 7 6 8 7 14 14 15 16 16 16 17 17 19 12 7
13 14 13 12 10 11 11 11 10 10 10 9 8 6 6 7 6 6 6 8 9 8 9 10 11 14 14 15 15 16 17 17 18
13 13 15 14 13 14 12 10 8 10 9 7 6 4 4 7 10 9 5 7 9 9 10 9 9 10 13 16 17 17 17 18 17
15 13 14 13 14 14 14 10 9 11 12 6 8 3 4 6 6 9 11 12 10 11 10 11 11 10 8 16 17 20 20 19 18
17 16 15 16 13 16 16 15 8 8 14 7 5 3 3 8 6 8 9 11 10 10 11 11 11 11 10 13 16 21 21 21 21
18 18 16 15 14 14 15 15 14 8 7 10 6 3 3 12 3 3 7 10 12 12 11 11 12 13 12 14 18 25 23 22 22
19 18 18 17 14 15 14 14 12 11 10 4 10 6 5 3 6 4 7 11 13 14 11 11 11 12 12 16 23 27 25 25 23
18 17 17 16 14 14 15 14 14 13 10 10 9 6 5 9 4 9 8 12 12 11 13 13 12 13 14 14 23 28 26 26 26
Wind_Direction
61 72 61 53 56 44 35 46 48 73 73 72 75 73 61 99 83 84 91 90 98 90 81 81 90 92 92 90 89 86 84 82 79
71 67 75 66 59 53 36 31 56 75 71 70 64 61 50 76 78 81 85 101 102 95 89 85 83 89 97 96 93 88 83 82 80
70 71 75 85 71 57 42 39 66 73 69 62 58 46 28 68 67 72 80 99 108 105 102 96 91 88 87 90 90 87 86 85 84
64 71 73 71 68 56 53 52 53 62 65 62 57 54 35 66 61 62 62 80 112 95 89 97 103 99 98 96 94 95 93 89 84
58 84 76 80 73 75 71 64 63 59 57 51 54 51 52 61 61 56 45 56 99 127 123 93 78 80 89 101 102 103 96 80 82
75 61 61 66 72 70 69 69 63 76 58 43 26 46 54 57 51 41 29 54 61 90 112 99 77 65 96 102 103 95 87 83 83
78 70 61 55 60 64 61 55 58 55 46 43 28 51 55 58 55 36 30 47 56 61 82 101 103 125 79 82 110 94 81 79 81
51 63 61 55 51 50 51 56 50 59 51 51 47 39 49 58 57 32 31 45 50 51 55 67 83 70 70 85 77 89 88 79 74
44 55 49 51 52 57 50 62 72 55 50 47 53 48 39 44 53 43 31 45 44 45 45 39 39 52 35 69 78 72 83 79 85
36 46 43 43 39 64 64 65 68 65 64 58 56 46 39 40 33 41 35 46 44 41 38 33 32 38 40 63 70 49 60 60 59
31 40 44 39 36 50 50 54 53 57 55 59 54 56 39 35 31 24 22 44 44 37 35 34 34 35 25 5 76 78 37 21 6
31 37 38 31 23 24 45 55 57 61 55 43 35 40 32 27 31 26 26 26 49 40 32 32 33 33 34 30 30 11 332 285 298
35 38 33 24 30 21 27 24 44 40 33 24 14 16 6 20 21 27 25 31 23 33 28 27 31 30 30 29 28 19 22 7 285
38 36 29 25 30 30 23 26 26 21 12 358 348 353 357 6 17 13 28 37 28 18 20 13 33 28 24 26 22 15 12 8 7
32 37 32 30 32 29 27 27 35 33 3 345 336 341 21 49 39 33 43 45 40 28 16 6 15 26 15 21 15 11 3 357 353
33 35 33 30 38 32 27 24 28 28 3 352 345 61 103 35 35 33 64 42 32 33 29 23 19 14 22 21 10 7 1 356 345
35 35 34 32 32 29 29 26 18 38 29 11 323 347 128 24 59 73 40 35 32 29 21 18 17 15 10 3 10 7 358 355 350
35 35 35 35 35 33 31 24 26 13 27 30 8 330 348 332 140 58 42 19 10 8 6 14 15 11 10 12 16 5 360 356 354
36 36 36 37 36 34 30 25 28 24 27 10 19 8 352 336 309 291 346 360 349 350 351 355 356 14 13 23 21 5 2 1 357
37 37 37 38 38 35 33 33 33 35 33 32 7 7 5 27 325 298 326 336 348 342 335 329 23 15 17 15 3 356 359 358 355